2024/02/27 00:00:00, 0.2, 0.4
2024/02/27 00:10:00, 0.4, 0.7
2024/02/27 00:20:00, 0.4, 0.3
2024/02/27 00:30:00, 0.2, 0.4
2024/02/27 00:40:00, 0.3, 0.5
2024/02/27 00:50:00, 0.4, 0.6
2024/02/27 01:00:00, 0.3, 0.6
2024/02/27 01:10:00, 0.2, 0.2
2024/02/27 01:20:00, 0.4, 0.2
2024/02/27 01:30:00, 0.4, 0.5
2024/02/27 01:40:00, 0.4, 0.9
2024/02/27 01:50:00, 0.2, 1.1
2024/02/27 02:00:00, 0.2, 0.6
2024/02/27 02:10:00, 0.2, 0.8
2024/02/27 02:20:00, 0.2, 1.0
2024/02/27 02:30:00, 0.2, 0.6
2024/02/27 02:40:00, 0.2, 0.9
2024/02/27 02:50:00, 0.2, 0.8
2024/02/27 03:00:00, 0.2, 0.5
2024/02/27 03:10:00, 0.2, 0.6
2024/02/27 03:20:00, 0.2, 0.9
2024/02/27 03:30:00, 0.2, 0.8
2024/02/27 03:40:00, 0.2, 1.0
2024/02/27 03:50:00, 0.2, 0.7
2024/02/27 04:00:00, 0.2, 0.6
2024/02/27 04:10:00, 0.2, 0.8
2024/02/27 04:20:00, 0.1, 0.9
2024/02/27 04:30:00, 0.2, 0.8
2024/02/27 04:40:00, 0.2, 0.8
2024/02/27 04:50:00, 0.2, 0.9
2024/02/27 05:00:00, 0.2, 0.8
2024/02/27 05:10:00, 0.2, 0.9
2024/02/27 05:20:00, 0.3, 1.0
2024/02/27 05:30:00, 0.3, 0.8
2024/02/27 05:40:00, 0.2, 0.9
2024/02/27 05:50:00, 0.3, 0.9
2024/02/27 06:00:00, 0.2, 0.9
2024/02/27 06:10:00, 0.3, 0.9
2024/02/27 06:20:00, 0.3, 0.8
2024/02/27 06:30:00, 0.3, 0.7
2024/02/27 06:40:00, 0.3, 0.7
2024/02/27 06:50:00, 0.2, 0.9
2024/02/27 07:00:00, 0.2, 0.7
2024/02/27 07:10:00, 0.2, 1.0
2024/02/27 07:20:00, 0.2, 0.8
2024/02/27 07:30:00, 0.2, 0.7
2024/02/27 07:40:00, 0.2, 1.1
2024/02/27 07:50:00, 0.2, 0.9
2024/02/27 08:00:00, 0.2, 1.0
2024/02/27 08:10:00, 0.1, 0.9
2024/02/27 08:20:00, 0.1, 1.4
2024/02/27 08:30:00, 0.1, 1.2
2024/02/27 08:40:00, 0.1, 1.5
2024/02/27 08:50:00, 0.1, 1.3
2024/02/27 09:00:00, 0.1, 1.3
2024/02/27 09:10:00, 0.1, 1.5
2024/02/27 09:20:00, 0.0, 1.3
2024/02/27 09:30:00, 0.0, 1.7
2024/02/27 09:40:00, 0.1, 1.3
2024/02/27 09:50:00, 0.0, 1.7
2024/02/27 10:00:00, 0.0, 1.9
2024/02/27 10:10:00, 0.0, 2.1
2024/02/27 10:20:00, 0.0, 2.2
2024/02/27 10:30:00, 0.0, 2.3
2024/02/27 10:40:00, 0.0, 2.3
2024/02/27 10:50:00, 0.0, 2.4
2024/02/27 11:00:00, 0.0, 2.6
2024/02/27 11:10:00, 0.0, 2.8
2024/02/27 11:20:00, 0.0, 2.6
2024/02/27 11:30:00, 0.0, 2.9
2024/02/27 11:40:00, 0.0, 2.8
2024/02/27 11:50:00, 0.0, 2.4
2024/02/27 12:00:00, 0.0, 2.2
2024/02/27 12:10:00, 0.0, 1.9
2024/02/27 12:20:00, 0.1, 1.0
2024/02/27 12:30:00, 0.1, 0.9
2024/02/27 12:40:00, 0.0, 1.0
2024/02/27 12:50:00, 0.0, 1.3
2024/02/27 13:00:00, 0.0, 1.2
2024/02/27 13:10:00, 0.0, 1.6
2024/02/27 13:20:00, 0.0, 2.2
2024/02/27 13:30:00, 0.0, 2.4
2024/02/27 13:40:00, 0.0, 2.5
2024/02/27 13:50:00, 0.0, 2.9
2024/02/27 14:00:00, 0.0, 2.8
2024/02/27 14:10:00, 0.0, 3.0
2024/02/27 14:20:00, 0.0, 3.0
2024/02/27 14:30:00, 0.0, 3.0
2024/02/27 14:40:00, 0.0, 3.2
2024/02/27 14:50:00, 0.0, 2.9
2024/02/27 15:00:00, 0.0, 2.9
2024/02/27 15:10:00, 0.0, 2.9
2024/02/27 15:20:00, 0.0, 3.1
2024/02/27 15:30:00, 0.0, 2.8
2024/02/27 15:40:00, 0.0, 2.9
2024/02/27 15:50:00, 0.0, 3.0
2024/02/27 16:00:00, 0.0, 3.0
2024/02/27 16:10:00, 0.0, 2.8
2024/02/27 16:20:00, 0.0, 2.8
2024/02/27 16:30:00, 0.0, 2.7
2024/02/27 16:40:00, 0.0, 2.7
